User: anonymous   Login
Location: Cactus School
(34.5700°N, 118.0931°W)
Time: 19:54:58
(UTC-07:00)
Language:

Transit 2A - Orbit

View from above orbital plane
View from above orbital plane
View from above satellite
View from above satellite

Ground track
Ground track

The orbit data is extracted from the following two-line orbital elements,

1    45U 60007A   24112.86886612  .00000942  00000-0  25900-3 0  9991
2    45  66.6931 278.2478 0251307  11.2749 349.3836 14.34657312324069
Epoch (UTC): 21 April 2024 20:51:10
Eccentricity: 0.0251307
inclination: 66.6931°
perigee height: 596 km
apogee height: 956 km
right ascension of ascending node: 278.2478°
argument of perigee: 11.2749°
revolutions per day: 14.34657312
mean anomaly at epoch: 349.3836°
orbit number at epoch: 32406

The dashed part of the orbit path shows where the satellite is in the earth's shadow,  

DLR